Whiting Fld NAS, FL

6:52 AM CST on December 16, 2019 (GMT -0600)
Whiting Field Naval Air Station (North)

Weather History for KNSE - November, 2019

Change the Weather History Date:

Tuesday, November 19, 2019

  Actual Average Record
Temperature  
Mean Temperature 54 °F -  
Max Temperature 71 °F 66 °F 79 °F (1998)
Min Temperature 37 °F 48 °F 19 °F (2014)
Degree Days  
Heating Degree Days 11    
Growing Degree Days 4 (Base 50)    
Moisture  
Dew Point 42 °F    
Average Humidity 68    
Maximum Humidity 100    
Minimum Humidity 31    
Precipitation  
Precipitation 0.00 in - - ()
Sea Level Pressure  
Sea Level Pressure 29.94 in    
Wind  
Wind Speed 4 mph ()    
Max Wind Speed 12 mph    
Max Gust Speed -    
Visibility 9.3 miles    
Events      
Averages and records for this station are not official NWS values.
T = Trace of Precipitation, MM = Missing Value Source: Averaged Metar Reports

Daily Weather History Graph

Daily Weather History Graph

Search for Another Location

Airport or City:

Astronomy

Nov. 19, 2019 Rise Set
Actual Time 6:17 AM CST 4:48 PM CST
Civil Twilight 5:51 AM CST 5:14 PM CST
Nautical Twilight 5:22 AM CST 5:43 PM CST
Astronomical Twilight 4:53 AM CST 6:12 PM CST
Moon 11:39 PM CST (11/19) 12:30 PM CST (11/19)
Length of Visible Light 11h 22m
Length of Day
10h 31m
Waning Gibbous, 51% of the Moon is Illuminated
Nov 19
Waning Gibbous
Nov 19
Last Quarter
Nov 26
New
Dec 4
First Quarter
Dec 11
Full

Hourly Weather History & Observations

Time (CST) Temp. Windchill Dew Point Humidity Pressure Visibility Wind Dir Wind Speed Gust Speed Precip Events Conditions
12:56 AM 45.0 °F 42.6 °F 42.1 °F 90% 29.86 in 10.0 mi NW 4.6 mph - N/A   Clear
1:56 AM 44.1 °F 41.5 °F 41.0 °F 89% 29.88 in 10.0 mi NW 4.6 mph - N/A   Clear
2:56 AM 43.0 °F 41.3 °F 41.0 °F 93% 29.88 in 10.0 mi NNW 3.5 mph - N/A   Clear
3:56 AM 39.9 °F 37.8 °F 39.0 °F 97% 29.90 in 8.0 mi NNW 3.5 mph - N/A   Clear
4:56 AM 39.0 °F 36.8 °F 37.9 °F 96% 29.90 in 5.0 mi NW 3.5 mph - N/A   Clear
5:56 AM 37.0 °F - 37.0 °F 100% 29.93 in 5.0 mi Calm Calm - N/A   Clear
6:56 AM 39.0 °F - 37.9 °F 96% 29.94 in 5.0 mi Calm Calm - N/A   Clear
7:56 AM 50.0 °F - 45.0 °F 83% 29.96 in 10.0 mi Calm Calm - N/A   Clear
8:56 AM 55.9 °F - 41.0 °F 57% 29.97 in 10.0 mi SW 3.5 mph - N/A   Clear
9:56 AM 61.0 °F - 42.1 °F 50% 29.97 in 10.0 mi WSW 5.8 mph - N/A   Clear
10:56 AM 64.9 °F - 37.9 °F 37% 29.96 in 10.0 mi WSW 8.1 mph - N/A   Clear
11:56 AM 68.0 °F - 39.9 °F 36% 29.92 in 10.0 mi West 6.9 mph - N/A   Clear
12:56 PM 71.1 °F - 39.0 °F 31% 29.91 in 10.0 mi West 5.8 mph - N/A   Clear
1:56 PM 71.1 °F - 41.0 °F 34% 29.90 in 10.0 mi West 9.2 mph - N/A   Clear
2:56 PM 71.1 °F - 41.0 °F 34% 29.90 in 10.0 mi West 11.5 mph - N/A   Clear
3:56 PM 69.1 °F - 43.0 °F 39% 29.92 in 10.0 mi WSW 5.8 mph - N/A   Clear
4:56 PM 62.1 °F - 44.1 °F 52% 29.94 in 10.0 mi West 5.8 mph - N/A   Clear
5:56 PM 59.0 °F - 44.1 °F 58% 29.96 in 10.0 mi WSW 6.9 mph - N/A   Clear
6:56 PM 55.9 °F - 45.0 °F 67% 29.97 in 10.0 mi WSW 6.9 mph - N/A   Clear
7:56 PM 55.0 °F - 45.0 °F 69% 29.99 in 10.0 mi WSW 6.9 mph - N/A   Clear
8:56 PM 53.1 °F - 46.0 °F 77% 30.00 in 10.0 mi West 6.9 mph - N/A   Clear
9:56 PM 51.1 °F - 46.0 °F 83% 30.01 in 10.0 mi West 5.8 mph - N/A   Clear
10:45 PM 51.1 °F - 46.0 °F 83% 30.05 in 10.0 mi WNW 5.8 mph - N/A   Clear
10:56 PM 51.1 °F - 46.0 °F 83% 30.01 in 10.0 mi WNW 4.6 mph - N/A   Clear